Terug naar catalogus

QIANFAN-217

ActiefCommunicatiePO
NORAD 69816·PAYLOAD·🇨🇳 China

Gelanceerd Jul 4, 2026 vanaf Taiyuan Satellite Launch Center

Loading…

Volgende Passages (komende 24 uur)

TLE

VersSource: Space-Track

Epoch: Sep 14, 2026, 13:06 UTC

1 69816U 26153S   26257.54590527 -.01866893  00000-0 -97294+0 0  9999
2 69816  88.9968 351.9749 0006752 333.0521  27.0317 14.18373675 10292

Volg QIANFAN-217 in realtime met AllMySat

Download on the App Store